Weather History for KCCR - August, 2013

Change the Weather History Date:

Thursday, August 1, 2013

  Actual Average Record
Temperature  
Mean Temperature 68 °F 72 °F  
Max Temperature 79 °F 88 °F 101 °F (2000)
Min Temperature 56 °F 58 °F 54 °F (2010)
Degree Days  
Heating Degree Days 0    
Month to date heating degree days 0  
Since 1 June heating degree days 15  
Since 1 July heating degree days 4  
Cooling Degree Days 3    
Month to date cooling degree days 3  
Year to date cooling degree days 471  
Since 1 June cooling degree days 379  
Growing Degree Days 16 (Base 50)    
Moisture  
Dew Point 50 °F    
Average Humidity 59    
Maximum Humidity 86    
Minimum Humidity 32    
Precipitation  
Precipitation 0.00 in - 0.00 in (2015)
Month to date precipitation 0.00  
Year to date precipitation 2.06  
Since 1 July precipitation 0.00  
Sea Level Pressure  
Sea Level Pressure 29.96 in    
Wind  
Wind Speed 15 mph (SSW)    
Max Wind Speed 23 mph    
Max Gust Speed 32 mph    
Visibility 10 miles    
Events      
T = Trace of Precipitation, MM = Missing Value Source: NWS Daily Summary

Daily Weather History Graph

Daily Weather History Graph

Search for Another Location

Airport or City:

Trip Planner

Search our weather history database for the weather conditions in past years. The results will help you decide how hot, cold, wet, or windy it might be!

Date:

Astronomy

Aug. 01, 2013 Rise Set
Actual Time 6:11 AM PDT 8:16 PM PDT
Civil Twilight 5:42 AM PDT 8:46 PM PDT
Nautical Twilight 5:06 AM PDT 9:21 PM PDT
Astronomical Twilight 4:28 AM PDT 10:00 PM PDT
Moon 1:52 AM PDT (8/1) 4:29 PM PDT (8/1)
Length of Visible Light 15h 03m
Length of Day
14h 05m
Waning Crescent, 22% of the Moon is Illuminated
Aug 1
Waning Crescent
Aug 6
New
Aug 14
First Quarter
Aug 20
Full
Aug 28
Last Quarter

Hourly Weather History & Observations

Time (PDT) Temp. Dew Point Humidity Pressure Visibility Wind Dir Wind Speed Gust Speed Precip Events Conditions
12:53 AM 57.9 °F 51.1 °F 78% 29.97 in 10.0 mi SSW 15.0 mph 23.0 mph N/A   Clear
1:53 AM 57.0 °F 51.1 °F 81% 29.96 in 10.0 mi SSW 18.4 mph 25.3 mph N/A   Clear
2:53 AM 57.0 °F 51.1 °F 81% 29.96 in 10.0 mi South 13.8 mph - N/A   Clear
3:53 AM 57.0 °F 51.1 °F 81% 29.96 in 10.0 mi South 13.8 mph - N/A   Clear
4:53 AM 55.9 °F 51.1 °F 84% 29.96 in 10.0 mi SSW 15.0 mph - N/A   Clear
5:53 AM 55.9 °F 50.0 °F 80% 29.97 in 10.0 mi South 15.0 mph 23.0 mph N/A   Clear
6:53 AM 55.9 °F 51.1 °F 84% 29.99 in 10.0 mi SSW 19.6 mph 27.6 mph N/A   Clear
7:53 AM 59.0 °F 51.1 °F 75% 29.99 in 10.0 mi SSW 18.4 mph 25.3 mph N/A   Clear
8:53 AM 61.0 °F 51.1 °F 70% 30.01 in 10.0 mi SSW 17.3 mph - N/A   Clear
9:53 AM 63.0 °F 50.0 °F 63% 30.01 in 10.0 mi SSW 20.7 mph 27.6 mph N/A   Clear
10:53 AM 66.0 °F 50.0 °F 56% 30.01 in 10.0 mi South 17.3 mph - N/A   Clear
11:53 AM 70.0 °F 50.0 °F 49% 30.01 in 10.0 mi SSW 16.1 mph - N/A   Clear
12:53 PM 72.0 °F 48.9 °F 44% 29.99 in 10.0 mi South 18.4 mph - N/A   Clear
1:53 PM 77.0 °F 48.9 °F 37% 29.98 in 10.0 mi South 16.1 mph - N/A   Clear
2:53 PM 78.1 °F 46.9 °F 33% 29.96 in 10.0 mi South 13.8 mph - N/A   Clear
3:53 PM 78.1 °F 46.0 °F 32% 29.95 in 10.0 mi South 12.7 mph - N/A   Clear
4:53 PM 77.0 °F 48.0 °F 36% 29.93 in 10.0 mi South 12.7 mph 21.9 mph N/A   Clear
5:53 PM 73.9 °F 48.9 °F 41% 29.91 in 10.0 mi South 16.1 mph - N/A   Clear
6:53 PM 71.1 °F 48.9 °F 45% 29.91 in 10.0 mi South 13.8 mph - N/A   Clear
7:53 PM 66.9 °F 50.0 °F 54% 29.91 in 10.0 mi South 13.8 mph - N/A   Clear
8:53 PM 62.1 °F 51.1 °F 67% 29.91 in 10.0 mi SSW 15.0 mph - N/A   Clear
9:53 PM 60.1 °F 51.1 °F 72% 29.93 in 10.0 mi South 11.5 mph - N/A   Clear
10:53 PM 60.1 °F 51.1 °F 72% 29.92 in 10.0 mi SSW 11.5 mph - N/A   Clear
11:53 PM 60.1 °F 51.1 °F 72% 29.92 in 10.0 mi South 11.5 mph - N/A   Clear